Weather History for KHLG - January, 2013

Change the Weather History Date:

Saturday, January 12, 2013

  Actual Average Record
Temperature  
Mean Temperature 59 °F 29 °F  
Max Temperature 64 °F 36 °F 64 °F (2013)
Min Temperature 54 °F 22 °F 13 °F (2003)
Degree Days  
Heating Degree Days 6 36  
Month to date heating degree days 371 432  
Since 1 July heating degree days 2397 2557  
Cooling Degree Days 0    
Month to date cooling degree days 0  
Year to date cooling degree days 0  
Growing Degree Days 10 (Base 50)    
Moisture  
Dew Point 54 °F    
Average Humidity 82    
Maximum Humidity 100    
Minimum Humidity 63    
Precipitation  
Precipitation T in 0.10 in 0.56 in (1991)
Month to date precipitation 0.21 1.25  
Sea Level Pressure  
Sea Level Pressure 30.03 in    
Wind  
Wind Speed 8 mph (SSW)    
Max Wind Speed 14 mph    
Max Gust Speed 18 mph    
Visibility 10 miles    
Events      
T = Trace of Precipitation, MM = Missing Value Source: NWS Daily Summary

Daily Weather History Graph

Daily Weather History Graph

Search for Another Location

Airport or City:

Trip Planner

Search our weather history database for the weather conditions in past years. The results will help you decide how hot, cold, wet, or windy it might be!

Date:

Astronomy

Jan. 12, 2013 Rise Set
Actual Time 7:43 AM EST 5:18 PM EST
Civil Twilight 7:13 AM EST 5:48 PM EST
Nautical Twilight 6:40 AM EST 6:22 PM EST
Astronomical Twilight 6:07 AM EST 6:54 PM EST
Moon 8:01 AM EST (1/12) 6:45 PM EST (1/12)
Length of Visible Light 10h 34m
Length of Day
9h 34m
New Moon, 1% of the Moon is Illuminated
Jan 12
New Moon
Jan 18
First Quarter
Jan 26
Full
Feb 3
Last Quarter
Feb 10
New

Hourly Weather History & Observations

Time (EST) Temp. Dew Point Humidity Pressure Visibility Wind Dir Wind Speed Gust Speed Precip Events Conditions
12:53 AM 55.0 °F 54.0 °F 96% 29.99 in 6.0 mi SSW 10.4 mph - N/A   Overcast
1:45 AM 55.4 °F 53.6 °F 94% 29.99 in 10.0 mi SSW 10.4 mph - N/A   Overcast
1:53 AM 55.0 °F 54.0 °F 96% 30.01 in 10.0 mi SSW 9.2 mph - N/A   Overcast
2:53 AM 55.9 °F 54.0 °F 93% 30.03 in 10.0 mi SSW 8.1 mph - N/A   Overcast
3:27 AM 55.4 °F 53.6 °F 94% 30.02 in 10.0 mi SSW 10.4 mph - N/A   Mostly Cloudy
3:38 AM 55.4 °F 53.6 °F 94% 30.02 in 10.0 mi South 8.1 mph - N/A   Scattered Clouds
3:53 AM 55.0 °F 53.1 °F 93% 30.03 in 10.0 mi South 9.2 mph - N/A   Partly Cloudy
4:53 AM 55.0 °F 53.1 °F 93% 30.02 in 10.0 mi SSW 9.2 mph - N/A   Partly Cloudy
5:17 AM 55.4 °F 53.6 °F 94% 30.02 in 10.0 mi SSW 9.2 mph - N/A   Mostly Cloudy
5:46 AM 55.4 °F 53.6 °F 94% 30.03 in 10.0 mi SW 6.9 mph - N/A   Mostly Cloudy
5:53 AM 55.9 °F 54.0 °F 93% 30.04 in 10.0 mi SW 10.4 mph - N/A   Overcast
6:04 AM 55.4 °F 53.6 °F 94% 30.04 in 10.0 mi SW 8.1 mph - N/A   Overcast
6:53 AM 55.9 °F 54.0 °F 93% 30.06 in 10.0 mi South 6.9 mph - N/A   Overcast
7:53 AM 55.9 °F 54.0 °F 93% 30.07 in 10.0 mi SSW 8.1 mph - N/A   Overcast
8:53 AM 55.9 °F 54.0 °F 93% 30.09 in 10.0 mi SW 4.6 mph - N/A   Mostly Cloudy
9:01 AM 55.4 °F 53.6 °F 94% 30.07 in 10.0 mi SSW 4.6 mph - N/A   Scattered Clouds
9:09 AM 55.4 °F 53.6 °F 94% 30.07 in 10.0 mi SSW 5.8 mph - N/A   Mostly Cloudy
9:34 AM 55.4 °F 53.6 °F 94% 30.08 in 10.0 mi WSW 6.9 mph - N/A   Scattered Clouds
9:43 AM 57.2 °F 53.6 °F 88% 30.08 in 10.0 mi SW 10.4 mph - N/A   Mostly Cloudy
9:53 AM 55.9 °F 54.0 °F 93% 30.09 in 10.0 mi SSW 12.7 mph - N/A   Mostly Cloudy
10:09 AM 57.2 °F 53.6 °F 88% 30.08 in 10.0 mi SSW 10.4 mph - N/A   Scattered Clouds
10:53 AM 57.0 °F 54.0 °F 89% 30.08 in 10.0 mi SW 9.2 mph - N/A   Mostly Cloudy
11:00 AM 57.2 °F 53.6 °F 88% 30.07 in 10.0 mi SW 9.2 mph - N/A   Scattered Clouds
11:53 AM 59.0 °F 54.0 °F 83% 30.06 in 10.0 mi SW 10.4 mph - N/A   Mostly Cloudy
12:29 PM 60.8 °F 53.6 °F 77% 30.03 in 10.0 mi SSW 9.2 mph - N/A   Scattered Clouds
12:53 PM 61.0 °F 55.0 °F 81% 30.04 in 10.0 mi SW 8.1 mph - N/A   Partly Cloudy
1:53 PM 63.0 °F 54.0 °F 72% 30.04 in 10.0 mi SW 9.2 mph - N/A   Partly Cloudy
2:53 PM 64.0 °F 52.0 °F 65% 30.04 in 10.0 mi SSW 10.4 mph - N/A   Clear
3:53 PM 62.1 °F 53.1 °F 72% 30.05 in 10.0 mi South 9.2 mph - N/A   Clear
4:53 PM 62.1 °F 54.0 °F 75% 30.04 in 10.0 mi SSE 6.9 mph - N/A   Partly Cloudy
5:53 PM 61.0 °F 54.0 °F 78% 30.02 in 10.0 mi SSE 4.6 mph - N/A   Clear
6:53 PM 60.1 °F 54.0 °F 80% 30.01 in 10.0 mi SE 5.8 mph - N/A   Mostly Cloudy
8:53 PM 60.1 °F 54.0 °F 80% 29.99 in 10.0 mi SE 5.8 mph - N/A   Overcast
9:53 PM 60.1 °F 54.0 °F 80% 29.97 in 10.0 mi SE 8.1 mph - N/A   Overcast
10:53 PM 61.0 °F 54.0 °F 78% 29.95 in 10.0 mi SE 10.4 mph - N/A   Overcast
11:53 PM 61.0 °F 54.0 °F 78% 29.93 in 10.0 mi SE 6.9 mph - 0.00 in   Scattered Clouds